Location: Bremen
(53.0793°N, 8.8017°E)
Time: 04:28:43
(UTC+01:00)

S-56A Canister/Altair - Visible Passes

Search period start: 28 November 2021 00:00
Search period end: 08 December 2021 00:00
Orbit: 633 x 2500 km, 38.9° (Epoch: 27 November)

Date Brightness Start Highest point End Pass type
(mag) Time Alt. Az. Time Alt. Az. Time Alt. Az.
28 Nov 9.4 05:37:55 13° SSW 05:38:29 13° SSW 05:40:41 10° SSE visible
29 Nov 9.5 05:07:05 14° S 05:07:05 14° S 05:08:40 10° SSE visible
30 Nov 9.9 04:36:15 11° SSE 04:36:15 11° SSE 04:36:38 10° SSE visible
